QPF
0.00 0.00 0.00 0.00 0.00 0.00 0.00 0.00 0.00 0.00 0.00 0.00 0.01 0.01 0.01 0.02 0.02 0.02 0.01 0.01 0.00 0.01 0.01 0.01 0.00 0.00 0.00 0.00 0.00 0.00 0.00 0.00 0.00 0.00 0.00 0.00 0.00 0.00 0.00 0.00 0.00 0.00 0.00 0.00 0.01 0.01 0.01 0.01 0.00
0.00 0.00 0.00 0.00 0.00 0.00 0.00 0.00 0.00 0.00 0.01 0.01 0.01 0.02 0.02 0.03 0.02 0.01 0.01 0.01 0.01 0.01 0.01 0.01 0.00 0.00 0.00 0.00 0.00 0.00 0.00 0.00 0.00 0.00 0.00 0.00 0.00 0.00 0.00 0.00 0.00 0.00 0.00 0.01 0.01 0.01 0.01 0.02 0.01
0.00 0.00 0.00 0.00 0.00 0.00 0.00 0.00 0.00 0.00 0.01 0.01 0.02 0.04 0.04 0.05 0.05 0.03 0.02 0.01 0.01 0.01 0.01 0.00 0.00 0.00 0.00 0.00 0.00 0.00 0.00 0.00 0.00 0.00 0.00 0.00 0.00 0.00 0.00 0.00 0.00 0.00 0.00 0.01 0.01 0.01 0.02 0.01 0.02
0.00 0.00 0.00 0.00 0.00 0.00 0.00 0.00 0.00 0.01 0.01 0.01 0.02 0.04 0.06 0.07 0.07 0.05 0.03 0.02 0.01 0.01 0.01 0.02 0.01 0.01 0.01 0.00 0.00 0.00 0.00 0.00 0.00 0.00 0.00 0.00 0.00 0.00 0.00 0.00 0.00 0.00 0.00 0.01 0.01 0.01 0.01 0.01 0.01
0.00 0.00 0.00 0.00 0.00 0.00 0.00 0.00 0.00 0.01 0.02 0.02 0.03 0.03 0.03 0.05 0.07 0.07 0.10 0.08 0.05 0.03 0.04 0.03 0.02 0.01 0.01 0.01 0.00 0.00 0.00 0.00 0.00 0.00 0.00 0.00 0.00 0.00 0.00 0.00 0.00 0.00 0.00 0.00 0.00 0.01 0.01 0.01 0.01
0.00 0.00 0.00 0.00 0.00 0.00 0.00 0.00 0.00 0.00 0.02 0.04 0.05 0.04 0.05 0.07 0.09 0.09 0.10 0.08 0.06 0.04 0.04 0.05 0.04 0.02 0.01 0.01 0.01 0.01 0.01 0.00 0.00 0.00 0.00 0.00 0.00 0.00 0.01 0.01 0.01 0.01 0.01 0.00 0.00 0.01 0.01 0.01 0.01
0.00 0.00 0.00 0.00 0.00 0.00 0.00 0.00 0.00 0.01 0.02 0.05 0.07 0.08 0.08 0.08 0.08 0.09 0.08 0.08 0.06 0.05 0.05 0.07 0.07 0.04 0.03 0.02 0.01 0.01 0.01 0.01 0.01 0.01 0.01 0.01 0.01 0.01 0.00 0.01 0.01 0.01 0.01 0.01 0.01 0.01 0.01 0.01 0.01
0.00 0.00 0.00 0.00 0.00 0.00 0.00 0.00 0.01 0.01 0.01 0.03 0.04 0.05 0.07 0.07 0.06 0.07 0.10 0.12 0.11 0.10 0.08 0.09 0.13 0.12 0.07 0.06 0.05 0.03 0.03 0.02 0.01 0.01 0.01 0.01 0.00 0.00 0.01 0.01 0.01 0.01 0.01 0.01 0.01 0.01 0.01 0.01 0.01
0.00 0.00 0.00 0.00 0.00 0.00 0.00 0.00 0.01 0.01 0.01 0.02 0.03 0.04 0.07 0.06 0.06 0.10 0.14 0.14 0.13 0.10 0.07 0.08 0.14 0.17 0.10 0.07 0.05 0.05 0.04 0.03 0.02 0.02 0.02 0.01 0.00 0.00 0.00 0.01 0.01 0.01 0.01 0.01 0.01 0.01 0.01 0.01 0.01
0.00 0.00 0.00 0.00 0.00 0.00 0.00 0.00 0.01 0.01 0.02 0.02 0.03 0.06 0.08 0.07 0.07 0.09 0.13 0.14 0.12 0.11 0.08 0.08 0.08 0.12 0.11 0.06 0.05 0.05 0.04 0.03 0.02 0.01 0.02 0.01 0.00 0.00 0.00 0.00 0.01 0.01 0.01 0.01 0.01 0.01 0.01 0.01 0.00
0.00 0.00 0.00 0.00 0.00 0.00 0.00 0.00 0.01 0.02 0.03 0.03 0.03 0.03 0.04 0.06 0.08 0.09 0.10 0.12 0.13 0.16 0.10 0.08 0.09 0.10 0.09 0.08 0.07 0.05 0.04 0.02 0.01 0.01 0.01 0.01 0.01 0.00 0.00 0.00 0.00 0.01 0.01 0.01 0.01 0.01 0.01 0.01 0.01
0.00 0.00 0.00 0.00 0.00 0.00 0.00 0.00 0.00 0.01 0.02 0.03 0.03 0.03 0.03 0.06 0.08 0.09 0.11 0.12 0.16 0.19 0.14 0.12 0.13 0.12 0.10 0.09 0.08 0.05 0.04 0.03 0.02 0.01 0.01 0.01 0.02 0.01 0.00 0.00 0.00 0.00 0.01 0.01 0.01 0.02 0.02 0.01 0.01
0.00 0.00 0.00 0.00 0.00 0.00 0.00 0.00 0.00 0.01 0.01 0.02 0.03 0.04 0.05 0.07 0.07 0.09 0.11 0.13 0.15 0.17 0.21 0.17 0.16 0.15 0.11 0.12 0.10 0.07 0.06 0.04 0.03 0.02 0.02 0.03 0.03 0.03 0.02 0.01 0.01 0.02 0.02 0.03 0.03 0.04 0.04 0.02 0.01
0.00 0.00 0.00 0.00 0.00 0.00 0.00 0.00 0.00 0.01 0.01 0.01 0.03 0.03 0.04 0.05 0.05 0.07 0.09 0.10 0.12 0.15 0.17 0.16 0.15 0.16 0.14 0.14 0.11 0.09 0.08 0.07 0.05 0.03 0.03 0.03 0.04 0.03 0.03 0.04 0.02 0.02 0.03 0.05 0.05 0.05 0.05 0.05 0.05
0.00 0.00 0.00 0.00 0.00 0.00 0.00 0.00 0.01 0.01 0.01 0.01 0.02 0.03 0.02 0.03 0.04 0.07 0.08 0.08 0.10 0.14 0.15 0.10 0.09 0.11 0.11 0.12 0.11 0.10 0.08 0.07 0.06 0.05 0.05 0.05 0.04 0.04 0.03 0.03 0.03 0.02 0.03 0.04 0.04 0.07 0.08 0.08 0.10
0.00 0.00 0.00 0.00 0.00 0.00 0.00 0.00 0.01 0.01 0.01 0.01 0.01 0.02 0.02 0.04 0.05 0.05 0.06 0.07 0.10 0.13 0.14 0.12 0.09 0.10 0.11 0.11 0.12 0.11 0.09 0.07 0.07 0.05 0.06 0.06 0.05 0.05 0.03 0.03 0.03 0.04 0.04 0.04 0.05 0.08 0.08 0.08 0.10
0.00 0.00 0.00 0.00 0.00 0.00 0.00 0.00 0.00 0.01 0.01 0.02 0.02 0.02 0.02 0.03 0.04 0.04 0.04 0.05 0.07 0.10 0.12 0.11 0.10 0.10 0.12 0.12 0.12 0.12 0.11 0.10 0.09 0.09 0.09 0.08 0.07 0.07 0.05 0.04 0.04 0.05 0.05 0.05 0.06 0.07 0.08 0.09 0.10
0.00 0.00 0.00 0.00 0.00 0.00 0.00 0.00 0.00 0.01 0.01 0.02 0.02 0.03 0.03 0.02 0.02 0.02 0.03 0.03 0.04 0.07 0.08 0.08 0.11 0.11 0.11 0.11 0.11 0.10 0.11 0.11 0.12 0.13 0.15 0.14 0.13 0.11 0.10 0.09 0.09 0.08 0.08 0.07 0.06 0.06 0.08 0.09 0.10
0.00 0.00 0.00 0.00 0.00 0.00 0.00 0.00 0.01 0.01 0.02 0.04 0.04 0.03 0.03 0.03 0.02 0.02 0.02 0.02 0.02 0.03 0.03 0.04 0.06 0.06 0.06 0.05 0.07 0.08 0.08 0.09 0.12 0.15 0.17 0.15 0.13 0.12 0.12 0.11 0.11 0.11 0.11 0.10 0.09 0.10 0.09 0.08 0.09
0.00 0.00 0.00 0.00 0.00 0.00 0.00 0.01 0.02 0.02 0.04 0.05 0.05 0.05 0.04 0.03 0.02 0.02 0.01 0.01 0.02 0.02 0.03 0.02 0.03 0.03 0.04 0.03 0.06 0.08 0.08 0.09 0.11 0.14 0.13 0.13 0.13 0.12 0.11 0.11 0.11 0.11 0.10 0.10 0.12 0.11 0.10 0.10 0.11
0.00 0.00 0.00 0.00 0.00 0.01 0.01 0.02 0.02 0.03 0.03 0.04 0.05 0.08 0.06 0.04 0.03 0.02 0.02 0.02 0.02 0.01 0.01 0.01 0.02 0.02 0.01 0.02 0.04 0.08 0.10 0.08 0.09 0.10 0.10 0.10 0.10 0.11 0.10 0.10 0.10 0.11 0.11 0.10 0.11 0.11 0.10 0.10 0.10
0.00 0.00 0.00 0.00 0.00 0.00 0.01 0.02 0.03 0.04 0.04 0.05 0.05 0.07 0.08 0.06 0.04 0.02 0.02 0.01 0.01 0.01 0.01 0.01 0.01 0.01 0.01 0.02 0.04 0.06 0.09 0.07 0.06 0.07 0.08 0.08 0.08 0.08 0.09 0.09 0.10 0.12 0.13 0.12 0.12 0.12 0.11 0.12 0.12
0.00 0.00 0.00 0.00 0.00 0.00 0.00 0.01 0.02 0.04 0.05 0.06 0.05 0.06 0.09 0.07 0.05 0.03 0.02 0.01 0.01 0.01 0.01 0.01 0.01 0.01 0.01 0.02 0.03 0.04 0.06 0.07 0.08 0.08 0.08 0.08 0.06 0.06 0.06 0.06 0.07 0.08 0.09 0.10 0.12 0.13 0.14 0.13 0.12
0.00 0.00 0.00 0.00 0.00 0.00 0.01 0.01 0.01 0.04 0.06 0.05 0.06 0.08 0.10 0.08 0.05 0.03 0.02 0.02 0.01 0.01 0.01 0.01 0.01 0.02 0.02 0.02 0.03 0.03 0.04 0.04 0.06 0.07 0.07 0.07 0.08 0.08 0.06 0.05 0.06 0.06 0.06 0.07 0.09 0.11 0.11 0.12 0.13
0.00 0.00 0.00 0.00 0.00 0.00 0.00 0.00 0.01 0.01 0.03 0.04 0.05 0.06 0.08 0.08 0.05 0.03 0.01 0.01 0.00 0.00 0.00 0.01 0.01 0.01 0.01 0.02 0.02 0.03 0.03 0.03 0.03 0.04 0.04 0.04 0.06 0.08 0.08 0.05 0.04 0.04 0.04 0.04 0.06 0.08 0.08 0.07 0.07
0.00 0.00 0.00 0.00 0.00 0.00 0.00 0.00 0.01 0.00 0.01 0.03 0.04 0.06 0.07 0.07 0.06 0.04 0.02 0.01 0.00 0.00 0.00 0.00 0.00 0.00 0.01 0.01 0.01 0.01 0.01 0.02 0.02 0.02 0.02 0.03 0.04 0.05 0.06 0.05 0.04 0.04 0.03 0.03 0.04 0.04 0.06 0.06 0.06
0.00 0.00 0.00 0.00 0.00 0.00 0.00 0.00 0.00 0.01 0.01 0.03 0.04 0.06 0.06 0.07 0.06 0.03 0.02 0.01 0.00 0.00 0.00 0.00 0.00 0.00 0.00 0.01 0.01 0.01 0.01 0.02 0.01 0.01 0.01 0.02 0.03 0.04 0.04 0.04 0.05 0.05 0.05 0.05 0.04 0.04 0.04 0.05 0.05
0.00 0.01 0.01 0.01 0.01 0.00 0.00 0.00 0.01 0.01 0.02 0.03 0.05 0.06 0.08 0.08 0.06 0.04 0.03 0.02 0.01 0.00 0.00 0.00 0.00 0.00 0.00 0.00 0.00 0.01 0.01 0.01 0.01 0.01 0.01 0.01 0.01 0.02 0.03 0.03 0.03 0.04 0.04 0.03 0.03 0.03 0.03 0.02 0.03
0.01 0.01 0.01 0.01 0.01 0.01 0.00 0.00 0.01 0.01 0.02 0.03 0.05 0.06 0.09 0.08 0.07 0.06 0.03 0.02 0.01 0.01 0.00 0.00 0.00 0.00 0.00 0.00 0.00 0.00 0.00 0.00 0.00 0.00 0.00 0.01 0.01 0.02 0.02 0.02 0.02 0.02 0.02 0.02 0.03 0.04 0.03 0.03 0.03
0.00 0.00 0.01 0.01 0.01 0.01 0.00 0.00 0.00 0.01 0.02 0.03 0.03 0.05 0.08 0.09 0.08 0.05 0.03 0.02 0.01 0.01 0.00 0.00 0.00 0.00 0.00 0.00 0.00 0.00 0.00 0.00 0.00 0.00 0.00 0.01 0.01 0.02 0.02 0.02 0.02 0.01 0.01 0.02 0.04 0.06 0.06 0.06 0.06
MSLP
1009.84 1010.84 1012.04 1013.22 1014.19 1014.79 1014.92 1014.60 1013.93 1013.05 1012.18 1011.46 1010.99 1010.81 1010.86 1011.06 1011.27 1011.42 1011.44 1011.36 1011.22 1011.10 1011.09 1011.24 1011.54 1011.97 1012.45 1012.91 1013.30 1013.59 1013.79 1013.95 1014.13 1014.39 1014.74 1015.19 1015.69 1016.21 1016.67 1017.04 1017.31 1017.48 1017.59 1017.68 1017.77 1017.88 1018.02 1018.17 1018.30
1010.38 1011.56 1012.83 1013.98 1014.81 1015.19 1015.06 1014.47 1013.56 1012.50 1011.51 1010.74 1010.27 1010.13 1010.23 1010.48 1010.75 1010.94 1011.02 1010.99 1010.91 1010.87 1010.94 1011.17 1011.55 1012.05 1012.59 1013.11 1013.54 1013.87 1014.11 1014.30 1014.50 1014.77 1015.11 1015.53 1015.99 1016.45 1016.85 1017.18 1017.41 1017.57 1017.69 1017.80 1017.94 1018.10 1018.28 1018.46 1018.61
1011.02 1012.30 1013.58 1014.63 1015.28 1015.43 1015.07 1014.28 1013.21 1012.07 1011.06 1010.32 1009.92 1009.84 1010.00 1010.30 1010.59 1010.79 1010.88 1010.86 1010.82 1010.82 1010.95 1011.24 1011.68 1012.24 1012.83 1013.39 1013.85 1014.22 1014.48 1014.70 1014.92 1015.18 1015.50 1015.87 1016.27 1016.66 1016.99 1017.25 1017.44 1017.58 1017.71 1017.86 1018.04 1018.26 1018.50 1018.72 1018.90
1011.70 1013.00 1014.20 1015.10 1015.55 1015.50 1014.97 1014.06 1012.94 1011.83 1010.90 1010.27 1009.98 1010.00 1010.23 1010.54 1010.83 1011.01 1011.07 1011.04 1010.99 1011.02 1011.17 1011.50 1011.98 1012.56 1013.17 1013.74 1014.22 1014.58 1014.86 1015.09 1015.31 1015.56 1015.86 1016.19 1016.54 1016.85 1017.11 1017.30 1017.45 1017.58 1017.72 1017.90 1018.13 1018.40 1018.70 1018.97 1019.19
1012.35 1013.58 1014.64 1015.35 1015.62 1015.41 1014.77 1013.83 1012.78 1011.80 1011.03 1010.58 1010.44 1010.56 1010.85 1011.16 1011.42 1011.54 1011.55 1011.48 1011.41 1011.44 1011.61 1011.94 1012.43 1013.01 1013.60 1014.14 1014.58 1014.93 1015.19 1015.41 1015.63 1015.88 1016.16 1016.46 1016.76 1017.03 1017.23 1017.38 1017.50 1017.61 1017.75 1017.96 1018.23 1018.54 1018.88 1019.19 1019.43
1012.88 1013.98 1014.85 1015.37 1015.47 1015.15 1014.49 1013.63 1012.72 1011.94 1011.40 1011.15 1011.18 1011.40 1011.72 1012.01 1012.21 1012.26 1012.20 1012.08 1011.99 1012.00 1012.17 1012.51 1012.97 1013.51 1014.04 1014.52 1014.90 1015.19 1015.42 1015.62 1015.83 1016.08 1016.37 1016.68 1016.96 1017.21 1017.38 1017.51 1017.60 1017.70 1017.84 1018.05 1018.33 1018.67 1019.02 1019.34 1019.60
1013.23 1014.15 1014.82 1015.17 1015.14 1014.77 1014.16 1013.44 1012.74 1012.20 1011.91 1011.86 1012.03 1012.33 1012.64 1012.89 1013.01 1012.98 1012.85 1012.69 1012.59 1012.60 1012.77 1013.09 1013.53 1014.00 1014.46 1014.84 1015.14 1015.35 1015.53 1015.71 1015.92 1016.19 1016.51 1016.84 1017.14 1017.39 1017.57 1017.68 1017.76 1017.84 1017.96 1018.16 1018.43 1018.75 1019.09 1019.41 1019.65
1013.38 1014.11 1014.60 1014.79 1014.68 1014.32 1013.81 1013.26 1012.80 1012.51 1012.44 1012.57 1012.83 1013.16 1013.44 1013.62 1013.65 1013.54 1013.37 1013.19 1013.10 1013.13 1013.31 1013.63 1014.02 1014.43 1014.80 1015.08 1015.28 1015.42 1015.55 1015.70 1015.93 1016.23 1016.59 1016.96 1017.31 1017.59 1017.78 1017.89 1017.95 1018.00 1018.09 1018.25 1018.49 1018.77 1019.08 1019.36 1019.59
1013.35 1013.90 1014.23 1014.31 1014.17 1013.86 1013.49 1013.14 1012.89 1012.82 1012.92 1013.17 1013.48 1013.78 1014.00 1014.09 1014.04 1013.88 1013.68 1013.51 1013.45 1013.52 1013.74 1014.06 1014.43 1014.78 1015.06 1015.25 1015.37 1015.44 1015.52 1015.67 1015.91 1016.25 1016.66 1017.08 1017.47 1017.78 1017.99 1018.09 1018.13 1018.15 1018.19 1018.30 1018.48 1018.71 1018.98 1019.23 1019.43
1013.20 1013.60 1013.81 1013.82 1013.69 1013.47 1013.25 1013.08 1013.03 1013.12 1013.34 1013.63 1013.94 1014.18 1014.31 1014.30 1014.18 1013.98 1013.78 1013.66 1013.65 1013.79 1014.05 1014.39 1014.75 1015.05 1015.27 1015.39 1015.44 1015.46 1015.52 1015.67 1015.93 1016.30 1016.75 1017.22 1017.64 1017.97 1018.18 1018.26 1018.27 1018.25 1018.24 1018.29 1018.42 1018.60 1018.82 1019.04 1019.22
1013.00 1013.29 1013.42 1013.42 1013.33 1013.22 1013.14 1013.13 1013.23 1013.43 1013.71 1014.00 1014.24 1014.40 1014.43 1014.34 1014.16 1013.95 1013.79 1013.72 1013.79 1013.99 1014.30 1014.67 1015.02 1015.30 1015.47 1015.55 1015.56 1015.55 1015.60 1015.75 1016.04 1016.43 1016.90 1017.39 1017.82 1018.14 1018.33 1018.39 1018.36 1018.30 1018.24 1018.24 1018.32 1018.46 1018.66 1018.86 1019.04
1012.84 1013.04 1013.14 1013.16 1013.14 1013.14 1013.20 1013.33 1013.53 1013.80 1014.08 1014.32 1014.49 1014.55 1014.49 1014.34 1014.13 1013.94 1013.82 1013.81 1013.95 1014.21 1014.56 1014.94 1015.29 1015.55 1015.70 1015.75 1015.75 1015.74 1015.80 1015.96 1016.25 1016.65 1017.12 1017.59 1017.99 1018.29 1018.45 1018.47 1018.41 1018.30 1018.22 1018.18 1018.23 1018.36 1018.54 1018.74 1018.93
1012.75 1012.91 1013.01 1013.07 1013.15 1013.26 1013.44 1013.67 1013.95 1014.24 1014.49 1014.68 1014.77 1014.75 1014.63 1014.45 1014.24 1014.07 1014.00 1014.04 1014.23 1014.52 1014.88 1015.26 1015.58 1015.82 1015.96 1016.01 1016.02 1016.03 1016.10 1016.28 1016.57 1016.95 1017.38 1017.81 1018.17 1018.41 1018.53 1018.52 1018.43 1018.30 1018.20 1018.16 1018.21 1018.33 1018.52 1018.73 1018.92
1012.76 1012.90 1013.02 1013.15 1013.32 1013.54 1013.82 1014.14 1014.46 1014.75 1014.98 1015.12 1015.16 1015.09 1014.94 1014.75 1014.57 1014.44 1014.41 1014.49 1014.68 1014.96 1015.29 1015.62 1015.91 1016.12 1016.24 1016.30 1016.33 1016.38 1016.47 1016.66 1016.94 1017.29 1017.67 1018.03 1018.33 1018.51 1018.59 1018.55 1018.45 1018.33 1018.24 1018.21 1018.27 1018.40 1018.59 1018.81 1019.00
1012.84 1012.98 1013.13 1013.33 1013.60 1013.92 1014.29 1014.67 1015.02 1015.31 1015.52 1015.62 1015.63 1015.55 1015.42 1015.26 1015.13 1015.04 1015.04 1015.12 1015.28 1015.50 1015.76 1016.01 1016.22 1016.39 1016.50 1016.58 1016.64 1016.73 1016.86 1017.06 1017.32 1017.63 1017.95 1018.24 1018.46 1018.60 1018.64 1018.60 1018.52 1018.42 1018.36 1018.36 1018.43 1018.57 1018.76 1018.95 1019.13
1012.95 1013.10 1013.29 1013.56 1013.91 1014.32 1014.76 1015.18 1015.55 1015.84 1016.03 1016.12 1016.13 1016.08 1015.99 1015.90 1015.83 1015.79 1015.81 1015.86 1015.96 1016.09 1016.23 1016.37 1016.50 1016.61 1016.70 1016.80 1016.90 1017.03 1017.21 1017.42 1017.67 1017.93 1018.19 1018.42 1018.58 1018.68 1018.71 1018.69 1018.63 1018.58 1018.56 1018.59 1018.67 1018.81 1018.96 1019.12 1019.24
1013.04 1013.19 1013.44 1013.78 1014.21 1014.69 1015.17 1015.62 1015.98 1016.25 1016.43 1016.52 1016.55 1016.55 1016.54 1016.54 1016.54 1016.56 1016.59 1016.61 1016.63 1016.65 1016.66 1016.68 1016.71 1016.76 1016.83 1016.95 1017.10 1017.28 1017.49 1017.72 1017.96 1018.19 1018.40 1018.57 1018.70 1018.77 1018.81 1018.81 1018.81 1018.81 1018.83 1018.89 1018.97 1019.07 1019.18 1019.26 1019.31
1013.06 1013.25 1013.54 1013.96 1014.45 1014.98 1015.48 1015.92 1016.26 1016.49 1016.63 1016.72 1016.78 1016.84 1016.92 1017.02 1017.12 1017.21 1017.26 1017.26 1017.21 1017.12 1017.01 1016.91 1016.85 1016.85 1016.91 1017.05 1017.24 1017.48 1017.73 1017.99 1018.22 1018.43 1018.59 1018.72 1018.82 1018.89 1018.95 1018.99 1019.04 1019.09 1019.15 1019.21 1019.27 1019.33 1019.36 1019.35 1019.31
1013.02 1013.25 1013.62 1014.10 1014.65 1015.20 1015.69 1016.09 1016.36 1016.52 1016.61 1016.67 1016.74 1016.86 1017.03 1017.24 1017.45 1017.63 1017.73 1017.74 1017.65 1017.49 1017.29 1017.11 1016.98 1016.94 1017.00 1017.16 1017.40 1017.68 1017.98 1018.25 1018.49 1018.67 1018.80 1018.90 1018.98 1019.05 1019.13 1019.22 1019.31 1019.40 1019.48 1019.54 1019.56 1019.55 1019.49 1019.39 1019.26
1012.95 1013.24 1013.69 1014.24 1014.83 1015.38 1015.83 1016.14 1016.31 1016.36 1016.35 1016.36 1016.42 1016.58 1016.84 1017.16 1017.50 1017.79 1017.98 1018.04 1017.97 1017.79 1017.55 1017.32 1017.16 1017.10 1017.17 1017.36 1017.63 1017.96 1018.28 1018.57 1018.80 1018.96 1019.06 1019.13 1019.19 1019.26 1019.35 1019.46 1019.59 1019.71 1019.79 1019.83 1019.81 1019.73 1019.59 1019.40 1019.18
1012.89 1013.28 1013.82 1014.44 1015.06 1015.59 1015.96 1016.15 1016.17 1016.07 1015.93 1015.84 1015.86 1016.04 1016.38 1016.82 1017.30 1017.73 1018.05 1018.21 1018.21 1018.08 1017.86 1017.63 1017.47 1017.42 1017.50 1017.72 1018.02 1018.37 1018.71 1018.99 1019.20 1019.33 1019.40 1019.43 1019.46 1019.52 1019.60 1019.72 1019.86 1019.98 1020.06 1020.08 1020.01 1019.87 1019.66 1019.40 1019.12
1012.91 1013.42 1014.06 1014.74 1015.38 1015.86 1016.14 1016.18 1016.02 1015.73 1015.43 1015.22 1015.18 1015.36 1015.75 1016.31 1016.94 1017.54 1018.03 1018.34 1018.47 1018.42 1018.28 1018.10 1017.97 1017.94 1018.05 1018.27 1018.59 1018.94 1019.27 1019.54 1019.71 1019.80 1019.82 1019.80 1019.79 1019.80 1019.87 1019.97 1020.09 1020.20 1020.26 1020.25 1020.15 1019.97 1019.72 1019.42 1019.12
1013.06 1013.68 1014.42 1015.17 1015.81 1016.24 1016.39 1016.27 1015.91 1015.43 1014.95 1014.61 1014.49 1014.66 1015.11 1015.77 1016.55 1017.33 1018.01 1018.50 1018.79 1018.89 1018.84 1018.74 1018.66 1018.66 1018.78 1019.01 1019.31 1019.64 1019.94 1020.17 1020.30 1020.33 1020.29 1020.21 1020.14 1020.10 1020.11 1020.18 1020.27 1020.35 1020.39 1020.36 1020.25 1020.05 1019.78 1019.48 1019.17
1013.32 1014.07 1014.90 1015.69 1016.32 1016.68 1016.71 1016.43 1015.89 1015.23 1014.59 1014.12 1013.93 1014.08 1014.57 1015.34 1016.26 1017.22 1018.08 1018.76 1019.22 1019.46 1019.54 1019.53 1019.50 1019.53 1019.65 1019.85 1020.12 1020.41 1020.66 1020.84 1020.90 1020.87 1020.77 1020.62 1020.48 1020.38 1020.33 1020.34 1020.38 1020.43 1020.45 1020.41 1020.30 1020.10 1019.85 1019.56 1019.27
1013.69 1014.53 1015.43 1016.24 1016.85 1017.14 1017.06 1016.64 1015.95 1015.14 1014.37 1013.80 1013.56 1013.71 1014.24 1015.09 1016.13 1017.24 1018.27 1019.12 1019.74 1020.12 1020.31 1020.38 1020.40 1020.44 1020.54 1020.72 1020.94 1021.18 1021.37 1021.48 1021.48 1021.39 1021.22 1021.01 1020.79 1020.62 1020.50 1020.45 1020.45 1020.46 1020.46 1020.42 1020.31 1020.15 1019.92 1019.66 1019.40
1014.10 1014.99 1015.92 1016.74 1017.31 1017.53 1017.37 1016.84 1016.06 1015.15 1014.30 1013.69 1013.42 1013.58 1014.15 1015.06 1016.20 1017.42 1018.57 1019.55 1020.30 1020.79 1021.07 1021.20 1021.25 1021.30 1021.38 1021.51 1021.68 1021.85 1021.98 1022.03 1021.98 1021.83 1021.60 1021.33 1021.06 1020.82 1020.65 1020.54 1020.48 1020.46 1020.44 1020.40 1020.32 1020.18 1020.00 1019.77 1019.53
1014.47 1015.38 1016.30 1017.09 1017.61 1017.78 1017.55 1016.98 1016.15 1015.22 1014.37 1013.76 1013.51 1013.69 1014.30 1015.26 1016.45 1017.73 1018.96 1020.01 1020.83 1021.40 1021.73 1021.90 1021.97 1022.01 1022.06 1022.16 1022.27 1022.39 1022.46 1022.47 1022.37 1022.18 1021.92 1021.61 1021.29 1021.01 1020.77 1020.61 1020.51 1020.46 1020.43 1020.40 1020.34 1020.23 1020.08 1019.89 1019.66
1014.76 1015.64 1016.51 1017.23 1017.70 1017.82 1017.57 1016.99 1016.19 1015.30 1014.51 1013.96 1013.77 1014.00 1014.64 1015.62 1016.83 1018.13 1019.37 1020.44 1021.29 1021.88 1022.24 1022.43 1022.50 1022.54 1022.57 1022.63 1022.71 1022.78 1022.82 1022.79 1022.67 1022.46 1022.17 1021.84 1021.50 1021.18 1020.91 1020.72 1020.58 1020.51 1020.47 1020.43 1020.39 1020.31 1020.19 1020.02 1019.81
1014.94 1015.74 1016.52 1017.16 1017.56 1017.64 1017.40 1016.87 1016.14 1015.36 1014.69 1014.25 1014.15 1014.45 1015.12 1016.10 1017.29 1018.55 1019.75 1020.80 1021.62 1022.21 1022.58 1022.77 1022.85 1022.88 1022.91 1022.95 1023.00 1023.05 1023.07 1023.02 1022.89 1022.68 1022.40 1022.06 1021.72 1021.38 1021.10 1020.87 1020.72 1020.62 1020.57 1020.54 1020.51 1020.45 1020.35 1020.20 1019.99
1015.02 1015.72 1016.39 1016.93 1017.25 1017.30 1017.08 1016.62 1016.02 1015.39 1014.88 1014.59 1014.61 1014.97 1015.67 1016.64 1017.78 1018.97 1020.10 1021.08 1021.85 1022.41 1022.76 1022.96 1023.05 1023.09 1023.13 1023.17 1023.22 1023.26 1023.27 1023.22 1023.10 1022.89 1022.62 1022.30 1021.96 1021.63 1021.34 1021.10 1020.93 1020.82 1020.75 1020.72 1020.69 1020.64 1020.56 1020.43 1020.23
Thickness
5780 5782 5781 5772 5747 5724 5726 5740 5752 5762 5773 5786 5793 5790 5782 5775 5768 5764 5785 5795 5793 5788 5783 5780 5777 5776 5774 5773 5772 5770 5769 5768 5767 5766 5764 5762 5760 5759 5758 5756 5755 5753 5752 5751 5749 5748 5747 5745 5744
5777 5778 5770 5753 5727 5713 5722 5740 5750 5764 5778 5787 5789 5787 5780 5774 5778 5778 5782 5787 5787 5783 5779 5775 5773 5772 5771 5770 5769 5767 5765 5764 5763 5762 5761 5759 5758 5757 5755 5754 5753 5751 5750 5749 5747 5746 5744 5743 5742
5774 5771 5752 5733 5719 5714 5731 5748 5756 5769 5780 5784 5779 5779 5773 5768 5774 5775 5779 5782 5780 5776 5773 5770 5768 5767 5766 5765 5765 5763 5762 5761 5760 5759 5758 5756 5755 5754 5752 5751 5750 5749 5748 5747 5746 5744 5742 5741 5740
5766 5754 5740 5724 5723 5727 5737 5752 5761 5766 5774 5779 5776 5767 5767 5770 5774 5776 5777 5776 5773 5770 5767 5765 5764 5763 5762 5761 5761 5760 5758 5757 5756 5755 5754 5753 5752 5751 5750 5749 5748 5747 5745 5745 5744 5742 5741 5739 5738
5756 5739 5722 5711 5721 5733 5744 5755 5763 5763 5765 5770 5770 5759 5756 5764 5772 5773 5773 5771 5767 5763 5761 5760 5759 5757 5757 5757 5756 5755 5754 5753 5752 5751 5750 5750 5749 5748 5747 5746 5745 5744 5743 5742 5741 5740 5739 5737 5736
5736 5725 5706 5705 5720 5735 5745 5755 5760 5760 5760 5763 5762 5753 5748 5758 5763 5765 5767 5765 5763 5759 5757 5755 5754 5753 5751 5751 5751 5750 5750 5749 5749 5748 5747 5746 5746 5745 5744 5743 5742 5741 5740 5739 5738 5737 5736 5735 5733
5727 5714 5707 5714 5718 5730 5746 5755 5753 5753 5753 5756 5760 5747 5744 5750 5756 5759 5760 5760 5757 5754 5753 5750 5749 5748 5746 5746 5745 5746 5745 5745 5745 5744 5743 5743 5743 5742 5741 5740 5739 5738 5737 5736 5735 5734 5733 5732 5731
5730 5714 5711 5710 5718 5727 5743 5748 5750 5751 5750 5759 5759 5745 5740 5745 5751 5753 5753 5752 5750 5749 5748 5746 5744 5744 5742 5741 5741 5741 5741 5740 5740 5740 5740 5739 5739 5739 5738 5737 5736 5735 5734 5733 5732 5731 5730 5729 5729
5731 5704 5700 5713 5720 5728 5739 5740 5745 5750 5750 5750 5751 5749 5747 5747 5746 5745 5743 5742 5741 5742 5742 5741 5739 5738 5737 5737 5737 5737 5736 5736 5736 5736 5736 5736 5735 5735 5734 5733 5733 5732 5731 5731 5730 5729 5728 5727 5726
5718 5698 5710 5723 5730 5732 5734 5736 5739 5741 5738 5738 5739 5740 5742 5741 5740 5737 5735 5734 5734 5734 5735 5735 5735 5733 5732 5733 5733 5733 5732 5732 5731 5731 5732 5732 5731 5731 5730 5730 5730 5729 5728 5728 5727 5726 5725 5724 5723
5718 5709 5719 5728 5733 5734 5731 5733 5738 5735 5728 5732 5733 5733 5734 5733 5732 5731 5729 5729 5729 5730 5730 5732 5731 5729 5728 5729 5729 5728 5728 5728 5727 5727 5728 5727 5727 5727 5726 5726 5726 5726 5725 5725 5724 5723 5722 5721 5720
5715 5719 5724 5728 5733 5731 5729 5729 5727 5728 5727 5734 5733 5732 5728 5725 5724 5724 5723 5724 5725 5725 5725 5725 5726 5724 5723 5724 5724 5724 5723 5722 5722 5723 5723 5723 5722 5722 5722 5722 5722 5722 5722 5721 5721 5720 5718 5717 5717
5713 5718 5725 5725 5725 5725 5725 5721 5720 5718 5725 5728 5726 5723 5720 5718 5717 5718 5719 5718 5719 5718 5717 5718 5720 5719 5718 5718 5718 5718 5718 5718 5718 5718 5718 5718 5718 5718 5718 5718 5718 5719 5718 5718 5717 5717 5715 5714 5714
5715 5716 5718 5720 5722 5721 5717 5712 5714 5710 5718 5718 5715 5712 5712 5711 5711 5712 5712 5711 5711 5711 5710 5711 5713 5713 5713 5712 5713 5712 5713 5713 5714 5714 5714 5714 5714 5714 5714 5715 5714 5715 5715 5714 5714 5713 5712 5711 5710
5715 5710 5710 5713 5716 5714 5715 5702 5703 5708 5711 5709 5707 5706 5705 5704 5705 5704 5705 5704 5704 5703 5703 5704 5706 5706 5706 5706 5707 5707 5708 5709 5708 5709 5709 5710 5709 5709 5710 5710 5710 5711 5711 5710 5709 5708 5708 5707 5706
5708 5700 5694 5706 5711 5711 5707 5688 5698 5704 5704 5700 5700 5700 5698 5697 5697 5698 5699 5698 5697 5697 5697 5699 5700 5700 5701 5701 5702 5702 5702 5703 5703 5703 5704 5705 5705 5705 5705 5706 5706 5706 5706 5706 5705 5704 5703 5702 5701
5688 5685 5689 5698 5706 5706 5700 5689 5695 5700 5699 5695 5695 5694 5692 5690 5690 5691 5692 5691 5690 5690 5690 5691 5692 5693 5694 5696 5696 5696 5696 5697 5697 5698 5699 5700 5700 5700 5701 5702 5702 5702 5702 5701 5701 5700 5699 5697 5696
5684 5687 5689 5690 5699 5698 5691 5688 5692 5695 5694 5691 5690 5688 5687 5685 5684 5685 5686 5686 5685 5684 5684 5684 5686 5687 5688 5690 5691 5692 5692 5693 5693 5693 5693 5694 5694 5695 5695 5696 5697 5697 5696 5696 5696 5695 5694 5693 5692
5695 5691 5687 5690 5698 5692 5685 5684 5687 5690 5688 5685 5684 5683 5681 5680 5680 5680 5681 5680 5680 5679 5678 5678 5678 5679 5682 5683 5684 5685 5685 5686 5687 5687 5687 5687 5688 5688 5688 5689 5690 5690 5689 5689 5689 5689 5688 5687 5686
5694 5689 5685 5686 5694 5688 5680 5679 5684 5686 5686 5685 5683 5681 5678 5676 5675 5673 5673 5673 5672 5671 5672 5672 5671 5672 5674 5676 5677 5679 5679 5679 5679 5678 5679 5679 5680 5680 5681 5682 5682 5682 5682 5681 5682 5682 5682 5681 5681
5693 5689 5687 5683 5684 5684 5679 5671 5676 5682 5684 5685 5683 5680 5677 5674 5671 5668 5666 5665 5665 5665 5665 5665 5665 5666 5668 5670 5672 5673 5673 5672 5671 5670 5670 5671 5671 5672 5673 5673 5675 5675 5675 5675 5675 5676 5676 5674 5674
5689 5701 5697 5690 5676 5665 5673 5657 5669 5676 5677 5679 5678 5675 5673 5670 5667 5663 5661 5659 5658 5658 5658 5658 5659 5660 5661 5663 5663 5663 5662 5661 5660 5660 5660 5661 5662 5663 5664 5665 5665 5666 5667 5668 5668 5669 5669 5669 5668
5697 5700 5695 5687 5673 5663 5664 5658 5662 5673 5672 5675 5675 5673 5669 5665 5662 5658 5656 5654 5653 5652 5652 5652 5653 5653 5653 5654 5654 5654 5653 5652 5652 5652 5652 5652 5653 5653 5654 5656 5657 5658 5659 5660 5661 5662 5662 5663 5663
5700 5691 5681 5671 5664 5652 5658 5656 5659 5668 5676 5677 5675 5671 5666 5661 5657 5653 5651 5649 5647 5646 5645 5645 5646 5646 5645 5645 5645 5645 5644 5643 5643 5643 5642 5643 5644 5645 5645 5647 5648 5649 5650 5652 5653 5654 5655 5656 5657
5693 5674 5655 5652 5642 5645 5657 5654 5660 5677 5681 5680 5675 5669 5663 5657 5651 5647 5645 5642 5640 5638 5637 5638 5638 5636 5636 5636 5635 5634 5633 5633 5633 5632 5632 5633 5633 5634 5635 5637 5638 5640 5642 5644 5646 5647 5648 5649 5650
5685 5676 5653 5643 5639 5641 5651 5651 5664 5675 5678 5679 5675 5667 5659 5652 5646 5642 5639 5636 5634 5631 5630 5629 5628 5627 5627 5626 5625 5624 5623 5622 5621 5621 5621 5622 5623 5624 5626 5627 5629 5631 5633 5635 5637 5639 5640 5641 5643
5680 5668 5669 5650 5644 5638 5643 5654 5665 5670 5669 5669 5666 5660 5653 5647 5642 5637 5633 5630 5627 5624 5621 5620 5620 5619 5618 5616 5615 5613 5613 5612 5612 5612 5613 5614 5615 5616 5617 5618 5620 5622 5624 5626 5628 5630 5631 5633 5635
5683 5670 5656 5647 5636 5634 5643 5648 5652 5662 5662 5661 5658 5654 5648 5642 5636 5631 5627 5622 5619 5616 5613 5612 5611 5609 5607 5606 5605 5605 5604 5604 5603 5604 5604 5604 5605 5607 5609 5611 5612 5614 5616 5618 5620 5622 5623 5625 5627
5673 5666 5653 5643 5643 5633 5631 5643 5665 5664 5663 5659 5654 5649 5644 5637 5630 5624 5619 5615 5611 5608 5606 5603 5601 5600 5598 5597 5596 5596 5595 5595 5595 5594 5594 5595 5596 5597 5599 5601 5603 5605 5607 5609 5611 5613 5615 5617 5618
5675 5667 5656 5647 5640 5636 5632 5641 5664 5663 5660 5656 5649 5643 5637 5630 5623 5617 5612 5607 5603 5600 5597 5595 5592 5591 5589 5588 5587 5586 5585 5585 5585 5584 5584 5585 5586 5588 5589 5591 5593 5595 5597 5599 5601 5603 5605 5607 5609